Regional Weather Roundup
Issued by NWS

Home | Current Version | Previous Version | Graphics & Text | Print | Product List | Glossary On
Versions: 1 2 3 4 5 6 7 8 9 10 11 12 13 14 15 16 17 18 19 20 21 22 23 24 25 26 27 28 29 30 31 32 33 34 35 36 37 38 39 40 41 42 43 44 45 46 47 48 49 50
000
ASUS43 KMKX 180100
RWRWI

WISCONSIN REGIONAL WEATHER ROUNDUP
NATIONAL WEATHER SERVICE MILWAUKEE/SULLIVAN WI
800 PM CDT TUE OCT 17 2017

NOTE: "FAIR" INDICATES FEW OR NO CLOUDS BELOW 12,000 FEET WITH NO
SIGNIFICANT WEATHER AND/OR OBSTRUCTIONS TO VISIBILITY.

WIZ001-002-006>008-014>016-023>028-180200-
NORTHWEST WISCONSIN

CITY           SKY/WX    TMP DP  RH WIND       PRES   REMARKS
SUPERIOR ARPT  CLEAR     56  41  56 S8        29.87S
ASHLAND        CLEAR     53  42  66 SW6       29.90F
HAYWARD        CLEAR     49  42  77 CALM      29.93S
SIREN          CLEAR     59  42  52 S7        29.92F
CUMBERLAND     CLEAR     52  39  62 CALM      29.95S
RICE LAKE      CLEAR     55  44  66 CALM      29.96S
CHETEK         CLEAR     53  45  73 SE5       29.95S
LADYSMITH      CLEAR     59  44  56 S5        29.98R
EAU CLAIRE     NOT AVBL
MENOMONIE      CLEAR     58  45  62 SE8       29.95S
NEW RICHMOND   CLEAR     55  43  65 S3        29.94S
OSCEOLA        CLEAR     51  45  79 E6        29.95F
$$

WIZ003>005-009-010-017-018-180200-
NORTH CENTRAL WISCONSIN

CITY           SKY/WX    TMP DP  RH WIND       PRES   REMARKS
MANITOWISH WTR CLEAR     49  43  79 S3        29.96R
ARBOR VITAE    CLEAR     57  45  64 S3        29.97R
WOODRUFF       CLEAR     57  45  64 S3        29.97R
RHINELANDER    CLEAR     56  45  66 S3        29.99S
EAGLE RIVER    CLEAR     55  41  60 CALM      29.97S
LAND O LAKES   CLEAR     46  43  88 CALM      29.99R
PHILLIPS       CLEAR     50  43  77 CALM      29.96S
TOMAHAWK       CLEAR     50  43  76 CALM      29.99R
MEDFORD        CLEAR     57  44  60 S8        29.99S
MERRILL        CLEAR     58  45  61 CALM      30.00R
$$

WIZ029-030-035-036-043>047-180200-
CENTRAL WISCONSIN

CITY           SKY/WX    TMP DP  RH WIND       PRES   REMARKS
WAUSAU         CLEAR     58  46  64 SW5       29.99R
MOSINEE        MOCLDY    54  46  76 S6        30.02R
MARSHFIELD     CLOUDY    55  44  66 S6        30.00R
STEVENS POINT  CLOUDY    54  46  72 CALM      30.02R
WAUPACA        CLOUDY    56  49  77 CALM      30.02S
WAUTOMA        CLOUDY    52  48  86 CALM      30.03S
WISC RAPIDS    CLOUDY    55  48  77 CALM      30.02R
CAMP DOUGLAS   NOT AVBL
$$

WIZ011>013-019>022-031-037>040-048>050-180200-
NORTHEAST WISCONSIN

CITY           SKY/WX    TMP DP  RH WIND       PRES   REMARKS
ANTIGO         CLEAR     53  44  73 S5        30.01S
SHAWANO        CLEAR     58  47  67 S3        30.00S
OCONTO         CLEAR     53  49  85 CALM      30.01S
STURGEON BAY   CLEAR     55  50  83 S7        30.03S
GREEN BAY      CLEAR     54  49  83 S5        30.02S
MANITOWOC      CLOUDY    53  50  89 CALM      30.04S
APPLETON       PTCLDY    57  43  58 SW10      30.02R
CLINTONVILLE   CLEAR     54  46  76 S5        30.01S
OSHKOSH        CLOUDY    54  47  77 S5        30.03S
$$

WIZ032>034-041-042-053>061-180200-
SOUTHWEST WISCONSIN

CITY           SKY/WX    TMP DP  RH WIND       PRES   REMARKS
LA CROSSE      CLEAR     61  48  62 S8        29.99R
SPARTA         CLOUDY    50  46  87 E3        30.02R
VIROQUA        CLEAR     61  45  55 S8        30.03R
BOSCOBEL       CLEAR     62  45  53 SW3       30.04R
PRAIRIE DU CHI CLEAR     63  41  45 CALM      30.03R
PLATTEVILLE    CLEAR     59  45  59 S10       30.07R
$$

WIZ056-057-062-063-064-067-068-180200-
SOUTH CENTRAL WISCONSIN

CITY           SKY/WX    TMP DP  RH WIND       PRES   REMARKS
REEDSBURG      CLEAR     60  45  57 S6        30.03R
BARABOO/DELLS  CLEAR     59  43  54 S7        30.04R
LONE ROCK      NOT AVBL
MINERAL POINT  CLEAR     59  45  58 S7        30.06S
MADISON        PTCLDY    62  44  51 S9        30.05S
MIDDLETON      CLEAR     63  44  50 SW8       30.06R
WATERTOWN      CLEAR     59  46  60 S7        30.06R
MONROE         CLEAR     59  39  47 S15G21    30.07S
JANESVILLE     CLEAR     61  39  44 SW8       30.08
$$

WIZ051-052-058>065-066-070>072-180200-
SOUTHEAST WISCONSIN

CITY           SKY/WX    TMP DP  RH WIND       PRES   REMARKS
MILWAUKEE      PTCLDY    64  42  44 SW13      30.08R
WAUKESHA       CLEAR     61  39  44 S6        30.09R
MILWAUKEE/TIMM CLEAR     63  37  39 SW9       30.08R
RACINE         CLEAR     61  43  51 SW10      30.11R
BURLINGTON     CLEAR     55  44  65 SW6       30.10R
KENOSHA        CLEAR     60  42  51 SW8       30.11R
FOND DU LAC    PTCLDY    58  44  60 S6        30.05R
SHEBOYGAN      PTCLDY    53  48  83 S3        30.05R
WEST BEND      CLOUDY    59  43  55 SW6       30.05S
JUNEAU         CLOUDY    59  45  58 S6        30.06S
$$

LSZ147-162-180200-
LAKE SUPERIOR

STATION/POSITION TIME  TEMP    WIND        PRES    WAVE
                       AIR SEA DIR/SP/G            HT/PER
                 (UTC) (F)     (DEG/KT/KT) (MB)    (FT/S)
W MID LAKE BUOY  2350   54 53              1012.2R   1
DEVILS ISLAND    0000   64     180/  9/ 10 1011.9S
SAXON HARBOR     0040   54     200/  4/  5 1012.2S
$$

LMZ867-665-643>646-180200-
LAKE MICHIGAN

STATION/POSITION TIME  TEMP    WIND        PRES    WAVE
                       AIR SEA DIR/SP/G            HT/PER
                 (UTC) (F)     (DEG/KT/KT) (MB)    (FT/S)
S GREEN BAY BUOY 0000   61 58  180/ 10/ 12 1015.9
N MID LAKE BUOY  2350   60 59  190/ 17/ 19 1016.8R   4/ 5
NORTHPORT PIER   0040   58     160/  5/ 11 1016.3R
KEWAUNEE LAKESHO 0030   57     180/  6/  8 1016.1R
SHEBOYGAN LAKESH 0000   67     200/  7/  8 1016.9R
PORT WASHINGTON  0030   64     270/  2/  5 1018.6R
MILWAUKEE LAKESH 0030   65     210/ 10/ 11   N/A
S MID LAKE BUOY  2350   63 61  210/ 14/ 16 1019.2R   3/ 5
KENOSHA   LAKESH 0000   65     200/ 11/ 13 1018.3
$$

TC  - TEMPERATURE IN CELSIUS
VSB - VISIBILITY IN STATUTE MILES
WCI - WIND CHILL INDEX
HX  - HEAT INDEX





USA.gov is the U.S. government's official web portal to all federal, state and local government web resources and services.